Morrisville, VT

1:41 PM EST on November 21, 2019 (GMT -0500)
Morrisville Stowe State

Weather History for KMVL - September, 2019

Change the Weather History Date:

Saturday, September 7, 2019

  Actual Average Record
Temperature  
Mean Temperature 58 °F 61 °F  
Max Temperature 69 °F 73 °F 91 °F (2015)
Min Temperature 48 °F 49 °F 34 °F (2000)
Degree Days  
Heating Degree Days 6 5  
Month to date heating degree days 32 31  
Since 1 July heating degree days 97 126  
Cooling Degree Days 0 1  
Month to date cooling degree days 1 7  
Year to date cooling degree days 244 254  
Growing Degree Days 8 (Base 50)    
Moisture  
Dew Point 51 °F    
Average Humidity 83    
Maximum Humidity 100    
Minimum Humidity 45    
Precipitation  
Precipitation 0.43 in 0.10 in 0.33 in (2017)
Month to date precipitation 1.87 0.67  
Year to date precipitation 29.10 24.43  
Sea Level Pressure  
Sea Level Pressure 29.80 in    
Wind  
Wind Speed 2 mph ()    
Max Wind Speed 12 mph    
Max Gust Speed 15 mph    
Visibility 8.7 miles    
Events Rain    
T = Trace of Precipitation, MM = Missing Value Source: Averaged Metar Reports

Daily Weather History Graph

Daily Weather History Graph

Search for Another Location

Airport or City:

Astronomy

Sep. 07, 2019 Rise Set
Actual Time 6:19 AM EDT 7:16 PM EDT
Civil Twilight 5:50 AM EDT 7:46 PM EDT
Nautical Twilight 5:14 AM EDT 8:21 PM EDT
Astronomical Twilight 4:37 AM EDT 8:58 PM EDT
Moon 3:41 PM EDT (9/7) No Moon Set
Length of Visible Light 13h 55m
Length of Day
12h 56m
Waxing Gibbous, 65% of the Moon is Illuminated
Sep 7
Waxing Gibbous
Sep 14
Full
Sep 21
Last Quarter
Sep 28
New
Oct 5
First Quarter

Hourly Weather History & Observations

Time (EDT) Temp. Dew Point Humidity Pressure Visibility Wind Dir Wind Speed Gust Speed Precip Events Conditions
12:54 AM 51.1 °F 48.9 °F 92% 29.91 in 10.0 mi Calm Calm - N/A   Clear
1:54 AM 52.0 °F 50.0 °F 93% 29.90 in 10.0 mi NNE 3.5 mph - N/A   Clear
2:54 AM 51.1 °F 50.0 °F 96% 29.88 in 10.0 mi Calm Calm - N/A   Clear
3:54 AM 52.0 °F 50.0 °F 93% 29.85 in 10.0 mi Calm Calm - N/A   Partly Cloudy
4:54 AM 50.0 °F 48.9 °F 96% 29.86 in 10.0 mi SSW 4.6 mph - N/A   Clear
5:54 AM 48.9 °F 46.9 °F 93% 29.86 in 10.0 mi Calm Calm - N/A   Clear
6:54 AM 48.9 °F 48.0 °F 97% 29.85 in 10.0 mi Calm Calm - N/A   Clear
7:54 AM 51.1 °F 48.9 °F 92% 29.84 in 10.0 mi Calm Calm - N/A   Clear
8:54 AM 55.9 °F 48.9 °F 77% 29.83 in 10.0 mi ESE 3.5 mph - N/A   Clear
9:54 AM 61.0 °F 48.0 °F 62% 29.82 in 10.0 mi Calm Calm - N/A   Clear
10:54 AM 64.9 °F 48.0 °F 54% 29.80 in 10.0 mi Variable 3.5 mph - N/A   Clear
11:54 AM 66.9 °F 48.0 °F 51% 29.78 in 10.0 mi Variable 4.6 mph - N/A   Clear
12:54 PM 66.0 °F 46.9 °F 50% 29.77 in 10.0 mi North 6.9 mph - N/A   Mostly Cloudy
1:54 PM 66.9 °F 46.9 °F 49% 29.74 in 10.0 mi North 3.5 mph - N/A   Mostly Cloudy
2:54 PM 68.0 °F 46.9 °F 47% 29.73 in 10.0 mi NW 5.8 mph - N/A   Mostly Cloudy
3:54 PM 66.0 °F 48.0 °F 52% 29.73 in 10.0 mi NNW 4.6 mph - N/A   Overcast
4:54 PM 62.1 °F 48.0 °F 60% 29.75 in 10.0 mi Variable 4.6 mph - 0.00 in   Overcast
5:54 PM 59.0 °F 52.0 °F 78% 29.76 in 10.0 mi SSW 5.8 mph - 0.00 in Rain Light Rain
6:54 PM 57.0 °F 54.0 °F 89% 29.78 in 4.0 mi Calm Calm - 0.05 in Rain Rain
7:24 PM 55.9 °F 54.0 °F 93% 29.77 in 2.5 mi South 4.6 mph - 0.12 in Rain Heavy Rain
7:28 PM 55.9 °F 54.0 °F 93% 29.77 in 3.0 mi South 3.5 mph - 0.12 in Rain Rain
7:40 PM 55.9 °F 55.0 °F 97% 29.78 in 6.0 mi Calm Calm - 0.15 in Rain Rain
7:54 PM 55.9 °F 55.0 °F 97% 29.79 in 6.0 mi Calm Calm - 0.20 in Rain Light Rain
8:13 PM 55.9 °F 55.0 °F 97% 29.78 in 8.0 mi Calm Calm - 0.04 in Rain Light Rain
8:22 PM 55.9 °F 55.0 °F 97% 29.78 in 10.0 mi Calm Calm - 0.04 in   Overcast
8:54 PM 55.9 °F 55.0 °F 97% 29.80 in 10.0 mi North 3.5 mph - 0.04 in   Overcast
9:01 PM 55.9 °F 55.0 °F 97% 29.79 in 10.0 mi North 3.5 mph - N/A   Overcast
9:54 PM 55.9 °F 54.0 °F 93% 29.80 in 10.0 mi Calm Calm - N/A   Overcast
10:18 PM 55.9 °F 54.0 °F 93% 29.79 in 10.0 mi Calm Calm - N/A   Overcast
10:54 PM 55.0 °F 54.0 °F 96% 29.79 in 10.0 mi Calm Calm - N/A   Overcast
11:16 PM 55.9 °F 54.0 °F 93% 29.79 in 10.0 mi Calm Calm - N/A   Overcast
11:49 PM 55.4 °F 53.6 °F 94% 29.80 in 4.0 mi Calm Calm - 0.07 in Rain Light Rain
11:54 PM 55.0 °F 54.0 °F 96% 29.80 in 3.0 mi Calm Calm - 0.12 in Rain Heavy Rain